Humidity-temperature Sensor

Selected Measurement Type: Air Temperature

 
Air Temperature [°C]     6 entries per hour
Showing data from 3/4/2016 (00:00:00 Z) to 3/3/2016 (00:01:00 Z)
Previous Next [ Day | 3-Days | 7-Days ]
First Last
Prev [ Day | 3-Days | 7-Days ] Next
First Last

Start Time:     :
End Time:     :     
Time (in GMT) :00 :50 :40 :30 :20 :10
Previous Next [ Day | 3-Days | 7-Days ]
First Last
Prev [ Day | 3-Days | 7-Days ] Next
First Last


123 => good data
MM => data is determined as missing
-- => data not received/configured
Back to Top Back to Top
3/4/2016 00:00 to 23:10 26.79 26.83 26.88 26.79 26.66 26.68
3/3/2016 23:00 to 22:10 26.75 26.76 26.79 26.83 26.86 27.00
3/3/2016 22:00 to 21:10 26.79 26.80 26.69 26.75 26.71 26.71
3/3/2016 21:00 to 20:10 26.82 26.88 26.97 27.25 27.24 27.38
3/3/2016 20:00 to 19:10 27.24 27.21 27.25 27.11 27.09 27.14
3/3/2016 19:00 to 18:10 27.03 26.93 27.12 27.10 26.98 26.97
3/3/2016 18:00 to 17:10 26.86 26.94 26.79 26.90 26.79 26.82
3/3/2016 17:00 to 16:10 26.73 26.66 26.62 26.42 26.35 26.40
3/3/2016 16:00 to 15:10 26.17 26.00 25.94 25.90 25.78 25.60
3/3/2016 15:00 to 14:10 25.53 25.36 25.29 25.17 25.30 25.12
3/3/2016 14:00 to 13:10 24.92 24.87 24.71 24.84 24.94 24.91
3/3/2016 13:00 to 12:10 25.02 24.94 25.02 24.90 24.78 24.80
3/3/2016 12:00 to 11:10 24.79 25.01 25.24 25.21 24.96 25.06
3/3/2016 11:00 to 10:10 24.97 25.45 25.72 26.32 27.45 27.46
3/3/2016 10:00 to 9:10 27.40 27.37 27.40 27.41 27.46 27.56
3/3/2016 09:00 to 8:10 27.47 27.50 27.45 27.33 27.39 27.34
3/3/2016 08:00 to 7:10 27.30 27.27 27.34 27.18 27.19 27.16
3/3/2016 07:00 to 6:10 27.14 27.03 27.16 27.04 26.99 26.93
3/3/2016 06:00 to 5:10 26.97 26.86 26.88 26.91 26.77 26.63
3/3/2016 05:00 to 4:10 26.69 26.64 26.62 26.55 26.40 26.34
3/3/2016 04:00 to 3:10 26.34 26.33 26.30 26.28 26.22 26.20
3/3/2016 03:00 to 2:10 26.23 26.07 26.07 26.15 26.30 26.17
3/3/2016 02:00 to 1:10 25.99 26.25 26.24 26.37 26.51 26.47
3/3/2016 01:00 to 0:10 26.45 26.56 26.46 26.53 26.23 26.05